CW8033 Weather Reports


time (UTC)temp
C
wind
direction
speed
KPH
gust
KPH
rain 1hr
cm
rain 24hr
cm
rain mn
cm
humidity
%
barometer
mb
20190822181645 22 35 1.6 3.2 0.00 0.00 0.00 51 1023.2
20190822181145 23 35 1.6 3.2 0.00 0.00 0.00 49 1023.2
20190822180645 23 35 1.6 3.2 0.00 0.00 0.00 47 1023.2
20190822180143 23 35 3.2 4.8 0.00 0.00 0.00 47 1023.2
20190822175644 23 35 1.6 6.4 0.00 0.00 0.00 45 1023.2
20190822175143 23 35 1.6 4.8 0.00 0.00 0.00 44 1023.2
20190822174640 24 35 3.2 6.4 0.00 0.00 0.00 43 1023.2
20190822174140 24 35 3.2 6.4 0.00 0.00 0.00 43 1023.2
20190822173639 24 35 3.2 6.4 0.00 0.00 0.00 42 1023.1
20190822173135 25 35 3.2 6.4 0.00 0.00 0.00 42 1023.1
20190822172636 25 35 3.2 6.4 0.00 0.00 0.00 42 1023.1
20190822172135 25 34 3.2 9.7 0.00 0.00 0.00 41 1023.1
20190822171635 25 34 3.2 9.7 0.00 0.00 0.00 40 1023.1
20190822171137 25 37 3.2 8.0 0.00 0.00 0.00 41 1023.1
20190822170633 25 37 3.2 8.0 0.00 0.00 0.00 41 1023.0
20190822170131 25 41 3.2 8.0 0.00 0.00 0.00 41 1023.0
20190822165631 25 40 4.8 6.4 0.00 0.00 0.00 41 1023.1
20190822165131 25 35 4.8 11.3 0.00 0.00 0.00 41 1023.0
20190822164628 25 38 4.8 9.7 0.00 0.00 0.00 41 1023.1
20190822164129 25 51 6.4 14.5 0.00 0.00 0.00 42 1023.1
20190822163627 25 24 6.4 14.5 0.00 0.00 0.00 41 1023.1
20190822163127 25 20 4.8 11.3 0.00 0.00 0.00 41 1023.1
20190822162629 25 42 4.8 9.7 0.00 0.00 0.00 41 1023.1
20190822162127 25 43 6.4 11.3 0.00 0.00 0.00 42 1023.2
20190822161626 25 41 8.0 14.5 0.00 0.00 0.00 40 1023.1
20190822161127 26 40 6.4 14.5 0.00 0.00 0.00 39 1023.1
20190822160626 26 26 6.4 16.1 0.00 0.00 0.00 40 1023.2
20190822160125 26 35 8.0 16.1 0.00 0.00 0.00 38 1023.2
20190822155625 26 44 8.0 16.1 0.00 0.00 0.00 39 1023.1
20190822155126 27 30 6.4 16.1 0.00 0.00 0.00 38 1023.1
20190822154626 27 355 6.4 12.9 0.00 0.00 0.00 38 1023.2
20190822154127 27 42 6.4 12.9 0.00 0.00 0.00 39 1023.2
20190822153625 27 22 6.4 12.9 0.00 0.00 0.00 38 1023.1
20190822153124 27 35 4.8 9.7 0.00 0.00 0.00 39 1023.2
20190822152626 26 5 6.4 14.5 0.00 0.00 0.00 38 1023.1
20190822152125 27 34 9.7 16.1 0.00 0.00 0.00 38 1023.2
20190822151624 27 15 9.7 16.1 0.00 0.00 0.00 38 1023.2
20190822151125 27 26 6.4 14.5 0.00 0.00 0.00 38 1023.2
20190822150626 26 32 6.4 12.9 0.00 0.00 0.00 40 1023.2
20190822150126 26 355 8.0 14.5 0.00 0.00 0.00 39 1023.2
20190822145625 27 32 6.4 14.5 0.00 0.00 0.00 39 1023.2
20190822145125 27 65 4.8 11.3 0.00 0.00 0.00 39 1023.2
20190822144627 26 337 4.8 14.5 0.00 0.00 0.00 40 1023.2
20190822144125 27 44 6.4 14.5 0.00 0.00 0.00 39 1023.2
20190822143625 27 29 6.4 14.5 0.00 0.00 0.00 40 1023.3
20190822143125 26 30 6.4 14.5 0.00 0.00 0.00 40 1023.4
20190822142625 26 63 8.0 14.5 0.00 0.00 0.00 38 1023.4
20190822142125 26 17 9.7 16.1 0.00 0.00 0.00 40 1023.4
20190822141627 26 49 8.0 20.9 0.00 0.00 0.00 39 1023.3
20190822141125 26 25 6.4 20.9 0.00 0.00 0.00 40 1023.4
20190822140625 26 44 4.8 9.7 0.00 0.00 0.00 40 1023.4
20190822140125 26 355 4.8 12.9 0.00 0.00 0.00 39 1023.4
20190822135624 26 53 4.8 12.9 0.00 0.00 0.00 38 1023.5
20190822135123 26 55 3.2 12.9 0.00 0.00 0.00 38 1023.5
20190822134623 26 43 3.2 11.3 0.00 0.00 0.00 39 1023.5
20190822134125 25 5 4.8 16.1 0.00 0.00 0.00 41 1023.6
20190822133622 25 348 8.0 16.1 0.00 0.00 0.00 41 1023.5
20190822133119 25 33 8.0 12.9 0.00 0.00 0.00 40 1023.6
20190822132620 25 47 6.4 12.9 0.00 0.00 0.00 40 1023.8
20190822132120 25 14 4.8 12.9 0.00 0.00 0.00 39 1023.6
20190822131619 25 158 6.4 14.5 0.00 0.00 0.00 42 1023.6
20190822131121 25 55 6.4 14.5 0.00 0.00 0.00 42 1023.8
20190822130618 24 346 6.4 20.9 0.00 0.00 0.00 42 1023.8
20190822130117 25 348 6.4 20.9 0.00 0.00 0.00 42 1023.9
20190822125615 25 46 6.4 14.5 0.00 0.00 0.00 44 1023.9
20190822125114 25 46 8.0 16.1 0.00 0.00 0.00 43 1023.9
20190822124615 25 44 6.4 17.7 0.00 0.00 0.00 44 1023.9
20190822124114 25 34 4.8 14.5 0.00 0.00 0.00 42 1023.9
20190822123614 26 87 4.8 17.7 0.00 0.00 0.00 43 1023.9
20190822123111 25 65 4.8 17.7 0.00 0.00 0.00 43 1023.9
20190822122612 25 82 3.2 9.7 0.00 0.00 0.00 42 1024.0
20190822122109 25 93 4.8 12.9 0.00 0.00 0.00 43 1024.0
20190822121609 25 51 4.8 14.5 0.00 0.00 0.00 44 1024.1
20190822121103 25 54 3.2 14.5 0.00 0.00 0.00 45 1024.1
20190822120603 25 172 4.8 16.1 0.00 0.00 0.00 48 1024.2
20190822120100 24 24 4.8 16.1 0.00 0.00 0.00 45 1024.2
20190822115602 25 135 6.4 17.7 0.00 0.00 0.00 46 1024.3
20190822115100 24 23 6.4 17.7 0.00 0.00 0.00 45 1024.3
20190822114605 24 113 4.8 12.9 0.00 0.00 0.00 47 1024.2
20190822114101 24 188 4.8 12.9 0.00 0.00 0.00 46 1024.2
20190822113603 24 57 6.4 17.7 0.00 0.00 0.00 49 1024.3
20190822113102 23 46 6.4 17.7 0.00 0.00 0.00 47 1024.4
20190822112601 24 34 6.4 14.5 0.00 0.00 0.00 47 1024.4
20190822112102 24 89 6.4 19.3 0.00 0.00 0.00 46 1024.4
20190822111602 23 103 6.4 19.3 0.00 0.00 0.00 48 1024.4
20190822111101 23 30 6.4 16.1 0.00 0.00 0.00 48 1024.4
20190822110603 24 116 6.4 14.5 0.00 0.00 0.00 48 1024.4
20190822110102 24 74 6.4 14.5 0.00 0.00 0.00 46 1024.5
20190822105603 23 76 4.8 11.3 0.00 0.00 0.00 50 1024.5
20190822105105 23 46 3.2 11.3 0.00 0.00 0.00 49 1024.5
20190822104603 23 36 6.4 12.9 0.00 0.00 0.00 50 1024.6
20190822104101 22 34 8.0 14.5 0.00 0.00 0.00 50 1024.7
20190822103602 23 38 6.4 14.5 0.00 0.00 0.00 50 1024.8
20190822103103 23 54 6.4 14.5 0.00 0.00 0.00 51 1024.8
20190822102601 22 78 8.0 14.5 0.00 0.00 0.00 51 1024.8
20190822102101 22 72 4.8 14.5 0.00 0.00 0.00 51 1024.8
20190822101602 22 116 3.2 12.9 0.00 0.00 0.00 52 1024.8
20190822101101 22 28 4.8 12.9 0.00 0.00 0.00 53 1024.8
20190822100603 22 48 4.8 11.3 0.00 0.00 0.00 52 1025.0
20190822100103 22 113 4.8 14.5 0.00 0.00 0.00 52 1024.9
20190822095603 22 86 4.8 14.5 0.00 0.00 0.00 52 1024.9
20190822095102 22 120 6.4 16.1 0.00 0.00 0.00 54 1024.9
20190822094602 21 65 6.4 16.1 0.00 0.00 0.00 53 1025.0
20190822094102 21 62 6.4 11.3 0.00 0.00 0.00 54 1024.9
20190822093602 21 61 6.4 12.9 0.00 0.00 0.00 54 1025.0
20190822093101 21 122 9.7 19.3 0.00 0.00 0.00 54 1025.0
20190822092603 21 33 8.0 19.3 0.00 0.00 0.00 54 1025.0
20190822092103 21 47 8.0 17.7 0.00 0.00 0.00 55 1025.0
20190822091603 21 40 8.0 17.7 0.00 0.00 0.00 55 1025.0
20190822091103 21 111 9.7 20.9 0.00 0.00 0.00 55 1025.0
20190822090559 21 37 9.7 20.9 0.00 0.00 0.00 54 1025.0
20190822090103 21 96 6.4 17.7 0.00 0.00 0.00 54 1025.0
20190822085555 21 107 6.4 20.9 0.00 0.00 0.00 56 1025.0
20190822085057 21 103 8.0 20.9 0.00 0.00 0.00 56 1025.0
20190822084554 20 78 6.4 12.9 0.00 0.00 0.00 58 1025.0
20190822084056 20 84 4.8 12.9 0.00 0.00 0.00 58 1025.0
20190822083551 20 98 4.8 11.3 0.00 0.00 0.00 59 1025.0
20190822083052 20 95 6.4 11.3 0.00 0.00 0.00 58 1025.1
20190822082551 20 74 6.4 12.9 0.00 0.00 0.00 59 1025.0
20190822082049 20 71 6.4 14.5 0.00 0.00 0.00 59 1025.0
20190822081549 19 69 6.4 14.5 0.00 0.00 0.00 59 1025.1
20190822081052 19 79 6.4 14.5 0.00 0.00 0.00 59 1025.1
20190822080549 19 29 6.4 16.1 0.00 0.00 0.00 61 1025.2
20190822080050 18 24 6.4 16.1 0.00 0.00 0.00 61 1025.2
20190822075549 18 44 6.4 11.3 0.00 0.00 0.00 62 1025.2
20190822075050 18 37 6.4 11.3 0.00 0.00 0.00 62 1025.2
20190822074548 18 44 4.8 11.3 0.00 0.00 0.00 62 1025.2
20190822074048 18 74 4.8 11.3 0.00 0.00 0.00 62 1025.2
20190822073547 18 64 4.8 9.7 0.00 0.00 0.00 63 1025.1
20190822073043 17 28 4.8 12.9 0.00 0.00 0.00 66 1025.1
20190822072544 16 27 3.2 12.9 0.00 0.00 0.00 67 1025.1
20190822072037 16 340 1.6 4.8 0.00 0.00 0.00 72 1025.2
20190822071535 15 51 1.6 3.2 0.00 0.00 0.00 75 1025.1
20190822071037 15 51 0.0 0.0 0.00 0.00 0.00 77 1025.1
20190822070536 15 51 0.0 0.0 0.00 0.00 0.00 79 1025.1
20190822070031 14 51 0.0 0.0 0.00 0.00 0.00 80 1025.1
20190822065531 13 51 0.0 0.0 0.00 0.00 0.00 80 1025.0
20190822065031 13 51 0.0 0.0 0.00 0.00 0.00 80 1025.0
20190822064531 13 51 0.0 0.0 0.00 0.00 0.00 80 1024.9
20190822064032 13 51 0.0 0.0 0.00 0.00 0.00 84 1024.9
20190822063531 12 51 0.0 0.0 0.00 0.00 0.00 84 1024.9
20190822063027 12 51 0.0 0.0 0.00 0.00 0.00 86 1024.9
20190822062527 11 51 0.0 0.0 0.00 0.00 0.00 86 1024.9
20190822062028 11 51 0.0 0.0 0.00 0.00 0.00 87 1024.9
20190822061525 11 51 0.0 0.0 0.00 0.00 0.00 89 1024.9
20190822061028 10 51 0.0 0.0 0.00 0.00 0.00 90 1024.8
20190822060527 10 51 0.0 0.0 0.00 0.00 0.00 91 1024.8
20190822060025 9 51 0.0 0.0 0.00 0.00 0.00 91 1024.8
20190822055524 9 51 0.0 0.0 0.00 0.00 0.00 91 1024.7
20190822055023 9 51 0.0 0.0 0.00 0.00 0.00 91 1024.8
20190822054519 9 51 0.0 0.0 0.00 0.00 0.00 91 1024.8
20190822054020 8 51 0.0 0.0 0.00 0.00 0.00 91 1024.8
20190822053520 8 51 0.0 0.0 0.00 0.00 0.00 92 1024.8
20190822053019 8 51 0.0 0.0 0.00 0.00 0.00 92 1024.7
20190822052519 8 51 0.0 0.0 0.00 0.00 0.00 92 1024.7
20190822052017 8 51 0.0 0.0 0.00 0.00 0.00 92 1024.7
20190822051518 8 51 0.0 0.0 0.00 0.00 0.00 92 1024.6
20190822051017 8 51 0.0 0.0 0.00 0.00 0.00 92 1024.6
20190822050517 8 51 0.0 0.0 0.00 0.00 0.00 92 1024.6
20190822050015 8 51 0.0 0.0 0.00 0.00 0.00 92 1024.6
20190822045511 8 51 0.0 0.0 0.00 0.00 0.00 92 1024.6
20190822045011 8 51 0.0 0.0 0.00 0.00 0.00 92 1024.6
20190822044511 8 51 0.0 0.0 0.00 0.00 0.00 92 1024.5
20190822044011 8 51 0.0 0.0 0.00 0.00 0.00 92 1024.5
20190822043502 8 51 0.0 0.0 0.00 0.00 0.00 92 1024.5
20190822043002 8 51 0.0 0.0 0.00 0.00 0.00 92 1024.5
20190822042502 8 51 0.0 0.0 0.00 0.00 0.00 92 1024.4
20190822042001 8 51 0.0 0.0 0.00 0.00 0.00 92 1024.4
20190822041502 8 51 0.0 0.0 0.00 0.00 0.00 91 1024.4
20190822041000 8 51 0.0 0.0 0.00 0.00 0.00 92 1024.5
20190822040508 8 51 0.0 0.0 0.00 0.00 0.00 92 1024.5
20190822040002 8 51 0.0 0.0 0.00 0.00 0.00 92 1024.5
20190822035500 8 51 0.0 0.0 0.00 0.00 0.00 92 1024.5
20190822035003 8 51 0.0 0.0 0.00 0.00 0.00 92 1024.4
20190822034501 8 51 0.0 0.0 0.00 0.00 0.00 92 1024.4
20190822034001 8 51 0.0 0.0 0.00 0.00 0.00 91 1024.3
20190822033501 8 51 0.0 0.0 0.00 0.00 0.00 91 1024.3
20190822033001 8 51 0.0 0.0 0.00 0.00 0.00 91 1024.3
20190822032454 8 51 0.0 0.0 0.00 0.00 0.00 92 1024.4
20190822031955 8 51 0.0 0.0 0.00 0.00 0.00 92 1024.5
20190822031453 8 51 0.0 0.0 0.00 0.00 0.00 92 1024.5
20190822030950 8 51 0.0 0.0 0.00 0.00 0.00 91 1024.4
20190822030448 8 51 0.0 0.0 0.00 0.00 0.00 91 1024.4
20190822025946 8 51 0.0 0.0 0.00 0.00 0.00 92 1024.4
20190822025445 8 51 0.0 0.0 0.00 0.00 0.00 91 1024.4
20190822024943 8 51 0.0 0.0 0.00 0.00 0.00 92 1024.4
20190822024445 9 51 0.0 0.0 0.00 0.00 0.00 91 1024.4
20190822023941 9 51 0.0 0.0 0.00 0.00 0.00 91 1024.4
20190822023439 9 51 0.0 0.0 0.00 0.00 0.00 91 1024.5
20190822022939 9 51 0.0 0.0 0.00 0.00 0.00 91 1024.6
20190822022439 9 51 0.0 0.0 0.00 0.00 0.00 91 1024.5
20190822021938 9 51 0.0 0.0 0.00 0.00 0.00 91 1024.6
20190822021437 9 51 0.0 0.0 0.00 0.00 0.00 92 1024.6
20190822020936 9 51 0.0 0.0 0.00 0.00 0.00 91 1024.6
20190822020431 9 51 0.0 0.0 0.00 0.00 0.00 91 1024.6
20190822015929 9 51 0.0 0.0 0.00 0.00 0.00 91 1024.6
20190822015429 9 51 0.0 0.0 0.00 0.00 0.00 91 1024.6
20190822014932 9 51 0.0 0.0 0.00 0.00 0.00 91 1024.5
20190822014431 10 51 0.0 0.0 0.00 0.00 0.00 90 1024.5
20190822013930 10 51 0.0 0.0 0.00 0.00 0.00 90 1024.5
20190822013429 10 51 0.0 0.0 0.00 0.00 0.00 90 1024.5
20190822012927 10 51 0.0 0.0 0.00 0.00 0.00 90 1024.6
20190822012429 10 51 0.0 0.0 0.00 0.00 0.00 90 1024.6
20190822011927 10 51 0.0 0.0 0.00 0.00 0.00 91 1024.6
20190822011429 10 51 0.0 0.0 0.00 0.00 0.00 90 1024.7
20190822010926 10 51 0.0 0.0 0.00 0.00 0.00 90 1024.7
20190822010427 10 51 0.0 0.0 0.00 0.00 0.00 90 1024.6
20190822005921 10 51 0.0 0.0 0.00 0.00 0.00 90 1024.7
20190822005417 10 51 0.0 0.0 0.00 0.00 0.00 90 1024.8
20190822004918 10 51 0.0 0.0 0.00 0.00 0.00 90 1024.9
20190822004417 10 51 0.0 0.0 0.00 0.00 0.00 90 1024.9
20190822003917 10 51 0.0 0.0 0.00 0.00 0.00 90 1025.0
20190822003420 10 51 0.0 0.0 0.00 0.00 0.00 90 1025.0
20190822002915 10 51 0.0 0.0 0.00 0.00 0.00 90 1025.0
20190822002413 10 51 0.0 0.0 0.00 0.00 0.00 89 1025.0
20190822001915 10 51 0.0 0.0 0.00 0.00 0.00 88 1025.0
20190822001412 10 51 0.0 0.0 0.00 0.00 0.00 89 1025.0
20190822000912 10 51 0.0 0.0 0.00 0.00 0.00 89 1025.1
20190822000406 11 51 0.0 0.0 0.00 0.00 0.00 89 1025.1
20190821235906 11 51 0.0 0.0 0.00 0.00 0.00 89 1025.1
20190821235406 11 51 0.0 0.0 0.00 0.00 0.00 90 1025.1
20190821234906 10 51 0.0 0.0 0.00 0.00 0.00 90 1025.1
20190821234405 11 51 0.0 0.0 0.00 0.00 0.00 90 1025.1
20190821233907 11 51 0.0 0.0 0.00 0.00 0.00 89 1025.0
20190821233405 11 51 0.0 0.0 0.00 0.00 0.00 88 1025.0
20190821232907 11 51 0.0 0.0 0.00 0.00 0.00 87 1025.0
20190821232405 11 51 0.0 0.0 0.00 0.00 0.00 88 1024.9
20190821231907 11 51 0.0 0.0 0.00 0.00 0.00 88 1025.0
20190821231403 11 51 0.0 0.0 0.00 0.00 0.00 89 1025.0
20190821230902 11 51 0.0 0.0 0.00 0.00 0.00 88 1025.0
20190821230401 11 51 0.0 0.0 0.00 0.00 0.00 87 1025.0
20190821225902 11 51 0.0 0.0 0.00 0.00 0.00 87 1025.0
20190821225404 11 51 0.0 0.0 0.00 0.00 0.00 86 1025.0
20190821224901 11 51 0.0 0.0 0.00 0.00 0.00 87 1025.0
20190821224402 11 51 0.0 0.0 0.00 0.00 0.00 87 1025.0
20190821223901 12 51 0.0 0.0 0.00 0.00 0.00 87 1025.0
20190821223402 12 51 0.0 0.0 0.00 0.00 0.00 86 1025.0
20190821222903 12 51 0.0 0.0 0.00 0.00 0.00 85 1025.0
20190821222402 12 51 0.0 0.0 0.00 0.00 0.00 85 1025.1
20190821221902 12 51 0.0 0.0 0.00 0.00 0.00 86 1025.1
20190821221402 12 51 0.0 0.0 0.00 0.00 0.00 85 1025.2
20190821220903 12 51 0.0 0.0 0.00 0.00 0.00 84 1025.2
20190821220403 12 51 0.0 0.0 0.00 0.00 0.00 84 1025.2
20190821215901 12 51 0.0 0.0 0.00 0.00 0.00 84 1025.2
20190821215403 12 51 0.0 0.0 0.00 0.00 0.00 84 1025.2
20190821214902 13 51 0.0 0.0 0.00 0.00 0.00 83 1025.2
20190821214403 13 51 0.0 0.0 0.00 0.00 0.00 82 1025.2
20190821213902 13 51 0.0 0.0 0.00 0.00 0.00 84 1025.2
20190821213402 13 51 0.0 0.0 0.00 0.00 0.00 83 1025.2
20190821212902 13 51 0.0 0.0 0.00 0.00 0.00 81 1025.3
20190821212403 13 51 0.0 0.0 0.00 0.00 0.00 81 1025.2
20190821211901 13 51 0.0 0.0 0.00 0.00 0.00 80 1025.2
20190821211403 13 51 0.0 0.0 0.00 0.00 0.00 80 1025.2
20190821210902 13 51 0.0 0.0 0.00 0.00 0.00 80 1025.2
20190821210402 13 51 0.0 0.0 0.00 0.00 0.00 79 1025.2
20190821205903 14 51 0.0 0.0 0.00 0.00 0.00 79 1025.2
20190821205401 14 51 0.0 0.0 0.00 0.00 0.00 77 1025.2
20190821204903 14 51 0.0 0.0 0.00 0.00 0.00 77 1025.2
20190821204403 14 51 0.0 0.0 0.00 0.00 0.00 76 1025.3
20190821203902 15 51 0.0 0.0 0.00 0.00 0.00 76 1025.3
20190821203401 15 51 0.0 0.0 0.00 0.00 0.00 75 1025.2
20190821202902 15 51 0.0 0.0 0.00 0.00 0.00 75 1025.3
20190821202401 15 51 0.0 0.0 0.00 0.00 0.00 76 1025.2
20190821201902 15 51 0.0 0.0 0.00 0.00 0.00 72 1025.3
20190821201402 15 51 0.0 0.0 0.00 0.00 0.00 74 1025.2
20190821200903 15 51 0.0 0.0 0.00 0.00 0.00 69 1025.2
20190821200403 16 51 0.0 0.0 0.00 0.00 0.00 70 1025.2
20190821195901 16 51 0.0 0.0 0.00 0.00 0.00 70 1025.2
20190821195403 16 51 0.0 0.0 0.00 0.00 0.00 70 1025.3
20190821194901 16 51 0.0 0.0 0.00 0.00 0.00 67 1025.2
20190821194401 16 51 0.0 0.0 0.00 0.00 0.00 68 1025.2
20190821193902 16 51 0.0 0.0 0.00 0.00 0.00 68 1025.2
20190821193401 16 51 0.0 0.0 0.00 0.00 0.00 66 1025.2
20190821192903 17 51 0.0 0.0 0.00 0.00 0.00 66 1025.2
20190821192401 17 51 0.0 0.0 0.00 0.00 0.00 64 1025.2
20190821191901 17 51 0.0 0.0 0.00 0.00 0.00 64 1025.2
20190821191402 17 51 0.0 0.0 0.00 0.00 0.00 65 1025.1
20190821190900 18 51 0.0 0.0 0.00 0.00 0.00 61 1025.1
20190821190401 18 51 0.0 0.0 0.00 0.00 0.00 62 1025.1
20190821185904 18 51 0.0 0.0 0.00 0.00 0.00 61 1025.1
20190821185402 18 51 0.0 0.0 0.00 0.00 0.00 58 1025.0
20190821184902 19 51 0.0 3.2 0.00 0.00 0.00 55 1024.9
20190821184359 20 51 1.6 3.2 0.00 0.00 0.00 52 1024.8
20190821183858 20 51 1.6 4.8 0.00 0.00 0.00 51 1024.7
20190821183357 20 51 3.2 4.8 0.00 0.00 0.00 50 1024.7
20190821182855 20 51 1.6 4.8 0.00 0.00 0.00 50 1024.6
20190821182356 21 51 3.2 8.0 0.00 0.00 0.00 48 1024.6